Location: Burbank
(38.7788°N, 114.0429°W)
Time: 13:44:33
(UTC+00:00)

Vanguard 2 - Pass Details

Date: 13 May 2026
Orbit: 553 x 2894 km, 32.9° (Epoch: 6 June)

Event Time Altitude Azimuth Distance (km) Brightness Sun altitude
Rises 14:13:05 0° 275° (W) 6,551 11.7 19.2°
Reaches altitude 10° 14:17:54 10° 272° (W) 5,330 11.3 20.1°
Maximum altitude 14:32:10 55° 201° (SSW) 2,238 10.0 22.9°
Drops below altitude 10° 14:41:07 10° 127° (SE) 3,447 11.7 24.6°
Sets 14:43:35 0° 122° (ESE) 4,157 12.1 25.1°
